This is the latest recevied weather packets stored in our database for station/object KD5VOO. If no packets are shown the sender has not sent any weather packets the latest 10 day(s).
| Time | Temp. | Humidity | Pressure | Rain* | Wind** | Luminosity | Snow |
|---|---|---|---|---|---|---|---|
| 1777655161 | 17.22° C | 78% | 1009.2 hPa | 0 mm | - | 38 W/m² | - |
| 1777654857 | 17.22° C | 78% | 1009.5 hPa | 0 mm | - | 50 W/m² | - |
| 1777654555 | 17.22° C | 78% | 1009.9 hPa | 0 mm | - | 37 W/m² | - |
| 1777654253 | 17.22° C | 78% | 1010.2 hPa | 0 mm | - | 36 W/m² | - |
| 1777653950 | 17.22° C | 78% | 1010.5 hPa | 0 mm | - | 44 W/m² | - |
| 1777653647 | 17.22° C | 78% | 1010.5 hPa | 0 mm | - | 45 W/m² | - |
| 1777653343 | 17.22° C | 78% | 1010.5 hPa | 0 mm | - | 32 W/m² | - |
| 1777653040 | 17.22° C | 78% | 1010.9 hPa | 0 mm | - | 29 W/m² | - |
| 1777652737 | 17.22° C | 78% | 1010.9 hPa | 0 mm | - | 33 W/m² | - |
| 1777652433 | 17.22° C | 78% | 1010.5 hPa | 0 mm | - | 52 W/m² | - |
| 1777652131 | 17.22° C | 78% | 1010.2 hPa | 0 mm | - | 51 W/m² | - |
| 1777651827 | 17.22° C | 78% | 1010.5 hPa | 0 mm | - | 33 W/m² | - |
| 1777651524 | 17.22° C | 78% | 1010.2 hPa | 1.78 mm | - | 44 W/m² | - |
| 1777651221 | 17.22° C | 78% | 1009.9 hPa | 1.78 mm | - | 37 W/m² | - |
| 1777650918 | 17.22° C | 78% | 1010.2 hPa | 0 mm | - | 34 W/m² | - |
| 1777650615 | 17.22° C | 78% | 1010.9 hPa | 0 mm | - | 31 W/m² | - |
| 1777650313 | 17.22° C | 78% | 1011.5 hPa | 0 mm | - | 12 W/m² | - |
| 1777650009 | 17.22° C | 78% | 1011.5 hPa | 0 mm | - | 27 W/m² | - |
| 1777649707 | 17.22° C | 78% | 1011.5 hPa | 0 mm | - | 22 W/m² | - |
| 1777649402 | 17.22° C | 78% | 1011.5 hPa | 0 mm | - | 20 W/m² | - |
| 1777649100 | 17.22° C | 78% | 1011.2 hPa | 0 mm | - | 21 W/m² | - |
| 1777648797 | 17.22° C | 78% | 1011.5 hPa | 0 mm | - | 17 W/m² | - |
| 1777648494 | 17.22° C | 78% | 1011.5 hPa | 0 mm | - | 23 W/m² | - |
| 1777648190 | 17.22° C | 78% | 1011.2 hPa | 0 mm | - | 11 W/m² | - |
| 1777647886 | 17.22° C | 78% | 1011.2 hPa | 0 mm | - | 17 W/m² | - |
* Rain latest hour (hover to see other rain measurements)
** Current wind speed in m/s (hover to see current wind gust speed)